This demonstration page uses our WeatherBlox Daily Observations layout. Learn more.

Left ArrowRight Arrow

Hourly Observations for July 1, 2017

Temp ( °F °C ) Dew Point ( °F °C ) Humidity (%) Winds ( mph kmh ) Pressure ( in mb ) Visibility ( mi km ) Precip ( " mm )
12:53 am 00:53 Clear 86 30 63 17.2 46 46 SE 16 26 29.72 1006 10 16 0.00 0.00
1:53 am 01:53 Clear 84 28.9 64 17.8 51 51 SE 14 22 29.71 1006 10 16 0.00 0.00
2:53 am 02:53 Clear 83 28.3 63 17.2 51 51 SE 15 24 29.72 1006 10 16 0.00 0.00
3:42 am 03:42 Clear 83 28.3 62 16.7 49 49 NE 21 33 29.74 1007 10 16 0.00 0.00
3:53 am 03:53 Clear 84 28.9 62 16.7 48 48 ESE 16 26 29.75 1008 10 16 0.00 0.00
4:04 am 04:04 Clear 84 28.9 62 16.7 48 48 NE 15 24 29.77 1008 10 16 0.00 0.00
4:50 am 04:50 Mostly Cloudy with Light Rain 81 27 64 18 58 58 E 16 26 29.80 1009 10 16 0.00 0.03
4:53 am 04:53 Mostly Cloudy with Light Rain 81 27.2 65 18.3 58 58 ENE 25 41 29.80 1009 10 16 0.00 0.03
5:07 am 05:07 Partly Cloudy 76 24.4 66 18.9 72 72 ENE 25 41 29.83 1010 10 16 0.00 0.03
5:50 am 05:50 Mostly Cloudy with Haze 72 22 63 17 73 73 E 28 44 29.85 1011 6 10 0.00 0.03
5:53 am 05:53 Mostly Cloudy 72 22.2 63 17.2 73 73 E 25 41 29.82 1010 7 11 0.00 0.03
6:04 am 06:04 Mostly Cloudy 71 21.7 62 16.7 73 73 E 29 46 29.88 1012 10 16 0.00 0.00
6:16 am 06:16 Mostly Clear 71 21.7 61 16.1 71 71 E 22 35 29.88 1012 10 16 0.00 0.00
6:53 am 06:53 Sunny 73 22.8 62 16.7 69 69 E 22 35 29.85 1011 10 16 0.00 0.00
7:49 am 07:49 Mostly Sunny 75 24 63 17 65 65 E 15 24 29.94 1014 10 16 0.00 0.00
7:53 am 07:53 Mostly Sunny 75 23.9 63 17.2 66 66 E 16 26 29.92 1013 10 16 0.00 0.00
8:12 am 08:12 Mostly Cloudy 75 23.9 63 17.2 66 66 E 18 30 29.94 1014 10 16 0.00 0.00
8:53 am 08:53 Cloudy 77 25 62 16.7 60 60 E 16 26 29.94 1014 10 16 0.00 0.00
9:01 am 09:01 Cloudy 77 25 62 16.7 60 60 E 16 26 29.94 1014 10 16 0.00 0.00
9:38 am 09:38 Cloudy 77 25 60 15.6 56 56 ESE 16 26 29.97 1015 10 16 0.00 0.00
9:53 am 09:53 Cloudy 78 25.6 61 16.1 56 56 ESE 16 26 29.96 1015 10 16 0.00 0.00
10:18 am 10:18 Cloudy 81 27.2 62 16.7 53 53 ESE 21 33 29.94 1014 10 16 0.00 0.00
10:50 am 10:50 Mostly Cloudy 82 28 63 17 51 51 E 22 35 29.94 1014 10 16 0.00 0.00
10:53 am 10:53 Mostly Cloudy 82 27.8 62 16.7 51 51 ESE 23 37 29.96 1015 10 16 0.00 0.00
11:02 am 11:02 Partly Cloudy 82 27.8 61 16.1 49 49 ESE 23 37 29.94 1014 10 16 0.00 0.00
11:53 am 11:53 Sunny 84 28.9 64 17.8 51 51 SE 21 33 29.96 1015 10 16 0.00 0.00
12:53 pm 12:53 Mostly Sunny 86 30 64 17.8 48 48 ESE 15 24 29.95 1014 10 16 0.00 0.00
1:53 pm 13:53 Sunny 90 32.2 64 17.8 42 42 SSE 15 24 29.92 1013 10 16 0.00 0.00
2:53 pm 14:53 Mostly Sunny 92 33.3 63 17.2 38 38 SE 15 24 29.89 1012 10 16 0.00 0.00
3:53 pm 15:53 Mostly Sunny 95 35 63 17.2 35 35 ESE 14 22 29.85 1011 10 16 0.00 0.00
4:53 pm 16:53 Mostly Sunny 97 36.1 61 16.1 30 30 SSE 13 20 29.83 1010 10 16 0.00 0.00
5:53 pm 17:53 Sunny 98 36.7 58 14.4 26 26 ESE 14 22 29.82 1010 10 16 0.00 0.00
6:53 pm 18:53 Sunny 97 36.1 57 13.9 26 26 SE 16 26 29.80 1009 10 16 0.00 0.00
7:53 pm 19:53 Sunny 94 34.4 59 15 31 31 SE 21 33 29.82 1010 10 16 0.00 0.00
8:53 pm 20:53 Sunny 92 33.3 60 15.6 34 34 SE 17 28 29.83 1010 10 16 0.00 0.00
9:53 pm 21:53 Clear 89 31.7 61 16.1 39 39 SSE 18 30 29.85 1011 10 16 0.00 0.00
10:53 pm 22:53 Clear 87 30.6 63 17.2 45 45 SSE 20 31 29.88 1012 10 16 0.00 0.00
11:53 pm 23:53 Clear 84 28.9 64 17.8 51 51 SSE 18 30 29.91 1013 10 16 0.00 0.00

Powered by AerisWeather